Overview Statistics Trail Chart Weather Telemetry Raw packets
 

This is the latest recevied weather packets stored in our database for station/object EA8AED-10. If no packets are shown the sender has not sent any weather packets the latest 10 day(s).

<< 4 5 6 7 8 9 10 >>
Time Temp. Humidity Pressure Rain* Wind** Luminosity Snow
1788445919 26.67° C 60% 999.6 hPa - - - -
1788445019 26.67° C 61% 999.7 hPa - - - -
1788444119 26.67° C 60% 999.6 hPa - - - -
1788443219 26.11° C 61% 999.8 hPa - - - -
1788442319 26.67° C 60% 999.6 hPa - - - -
1788441419 26.11° C 62% 999.6 hPa - - - -
1788440519 26.11° C 62% 999.6 hPa - - - -
1788439619 25.56° C 64% 999.4 hPa - - - -
1788438718 26.11° C 63% 998.9 hPa - - - -
1788437818 25° C 65% 999.1 hPa - - - -
1788436918 25.56° C 64% 999.3 hPa - - - -
1788436018 25° C 65% 999.5 hPa - - - -
1788435118 25° C 65% 999.2 hPa - - - -
1788434218 25° C 66% 999.1 hPa - - - -
1788433318 24.44° C 65% 999.2 hPa - - - -
1788432418 24.44° C 66% 998.9 hPa - - - -
1788431518 25° C 65% 999 hPa - - - -
1788430620 24.44° C 66% 998.8 hPa - - - -
1788429718 24.44° C 66% 998.3 hPa - - - -
1788428818 23.89° C 67% 998.4 hPa - - - -
1788427918 23.89° C 69% 998.6 hPa - - - -
1788427018 23.33° C 69% 998.3 hPa - - - -
1788426118 23.33° C 70% 998.9 hPa - - - -
1788425218 22.78° C 71% 998.8 hPa - - - -
1788424318 22.78° C 70% 998.8 hPa - - - -

* Rain since midnight (hover to see other rain measurements)
** Current wind speed in m/s (hover to see current wind gust speed)